sat.trackr.live / text

‹ back to catalog

STARLINK-3990

NORAD 52626 · 2022-052AE

PAYLOAD ACTIVE UNKNOWN

§ Identity

Operator
Country
US
Launch date
2022-05-14
Launch site
AFETR
Launch vehicle
Mass (kg)
RCS (m²)

Purposes: comms

External: N2YO · Heavens-Above · Gunter

§ Orbital elements

Epoch: 2026-05-25T02:41:58.831008Z

Period
95.44 min
Inclination
53.2135°
Eccentricity
0.0001234
Mean motion
15.08841150 rev/d
Perigee alt
538.9 km
Apogee alt
540.6 km
Semi-major
6,917.9 km
B*
7.7302e-5
RAAN
286.0414°
Arg perigee
84.6506°
Mean anomaly
275.4627°
Rev number
22,252

§ Raw data

STARLINK-39901 52626U 22052AE  26145.11248647  .00000943  00000+0  77302-4 0  99912 52626  53.2135 286.0414 0001234  84.6506 275.4627 15.08841150222525

JSON: /api/v1/satellites/52626 · /tle

For live sub-satellite position, see the globe view (requires WebGL).

§ Visibility from observer

Set your observer location to see the next 7 days of passes ≥ 10°. The values pass through the URL so the page stays shareable.

No JS? Fill the form by hand. The geolocation button needs JavaScript.